Regional Weather Roundup
Issued by NWS Grand Forks, ND

Home | Current Version | Previous Version | Graphics & Text | Print | Product List | Glossary On
Versions: 1 2 3 4 5 6 7 8 9 10 11 12 13 14 15 16 17 18 19 20 21 22 23 24 25 26 27 28 29 30 31 32 33 34 35 36 37 38 39 40 41 42 43 44 45 46 47 48 49 50
000
ASUS43 KFGF 280110
RWRFGF
PRAIRIE TO PINES  WEATHER ROUNDUP
NATIONAL WEATHER SERVICE EASTERN NORTH DAKOTA/GRAND FORKS ND
700 PM CST TUE JAN 27 2015

 **SATELLITE DATA USED TO AUGMENT SKY COVER AT AUTOMATED STATIONS**
 *****  WEATHER ACROSS EASTERN NORTH DAKOTA  *****

CITY           SKY/WX    TMP DP  RH WIND       PRES   REMARKS
GRAND FORKS    CLOUDY    32  30  92 S14G22    29.93F WCI  22
GRAND FRKS AFB CLOUDY    31  29  92 S17G25    29.92F WCI  20
DEVILS LAKE    CLOUDY    34  32  93 S12       29.83R
FARGO          CLOUDY    33  29  85 S18G25    29.96S WCI  22
WAHPETON ARPT  CLOUDY    32  30  93 SE16G22   29.98F WCI  21
$$

 ***** WEATHER ACROSS CENTRAL AND WESTERN NORTH DAKOTA  *****

CITY           SKY/WX    TMP DP  RH WIND       PRES   REMARKS
BISMARCK       MOCLDY    39  32  76 E5        29.81F
MINOT          CLOUDY    38  33  82 W6        29.77F
JAMESTOWN      FOG       32  31  96 SE9       29.85F VSB 1/4 WCI  24
MINOT AFB      CLOUDY    34  34 100 W3        29.77F
GARRISON         N/A     38  34  85 CALM      29.78F
WILLISTON      MOCLDY    36  32  85 CALM      29.78F
DICKINSON      MOCLDY    43  33  68 W5        29.78F
HETTINGER      PTCLDY    41  31  67 CALM      29.83S
$$

 *****  OTHER AIRPORT OBSERVATIONS IN OUR AREA  *****

CITY           SKY/WX    TMP DP  RH WIND       PRES   REMARKS
WALHALLA         N/A     32  32 100 S10       29.90R WCI  24
GRAFTON AIRPOR NOT AVBL
VALLEY CITY AR FOG       30  30 100 SE14      29.89F VSB 1/2 WCI  20
CANDO          FAIR      32  32 100 SE10      29.84R WCI  24
CAVALIER APRT  CLOUDY    32  30  93 S13G26    29.90F WCI  22
GWINNER        CLOUDY    32  32 100 CALM      29.93S VSB 1
ROLLA          FAIR      30  30 100 CALM      29.81F
 ***** THE ABOVE OBSERVATIONS ARE NON NWS ARE NOT QUALITY
       CONTROLLED AND MAY MIS-REPORT RAIN FOR SNOW...
$$

  *****  WEATHER ACROSS NORTHERN MINNESOTA  *****

CITY           SKY/WX    TMP DP  RH WIND       PRES   REMARKS
FLAG ISLAND    CLOUDY    28  27  93 SE9       29.98S WCI  20
WARROAD        CLOUDY    32  27  80 SE12      29.98S WCI  23
ROSEAU         MOCLDY    32  27  80 SE7       29.96F
HALLOCK        CLOUDY    32  30  93 S10       29.93R WCI  24
THF RVR FALLS  PTCLDY    30  28  93 SE10      29.96F WCI  21
BAUDETTE       CLOUDY    32  24  72 SE8       30.00F WCI  25
WASKISH        CLOUDY    32  27  80 SE6       30.02F
CROOKSTON      PTCLDY    32  30  93 S10       29.96F WCI  24
STEPHEN NDAWN    N/A     32  30  93 S14         N/A  WCI  22
GREENBUSH NDAW   N/A     28  27  93 SE9         N/A  WCI  20
$$
  *****  WEATHER ACROSS CENTRAL AND WEST MINNESOTA  *****

CITY           SKY/WX    TMP DP  RH WIND       PRES   REMARKS
FOSSTON        PTCLDY    30  25  80 SE8       29.97F WCI  23
BEMIDJI        MOCLDY    30  26  85 SE9       30.00F WCI  21
PARK RAPIDS    CLOUDY    31  27  85 SE15      30.02S WCI  20
ELBOW LAKE     CLOUDY    31  29  95 SE21      30.00F WCI  18
WADENA         CLOUDY    30  27  86 S13G21    30.02S WCI  20
DETROIT LAKES  CLOUDY    32  30  93 SE16      29.99S WCI  21
MOORHEAD       CLOUDY    32  32 100 S23G31    29.98S WCI  19
FERGUS FALLS   CLOUDY    30  30 100 S16       30.03S WCI  19
MORRIS MN      CLOUDY    34  30  86 SE17      30.00S WCI  23
STAPLES        CLOUDY    30  27  86 SE8       30.05R WCI  23
$$
  *****  WEATHER ELSEWHERE ACROSS MINNESOTA  *****

CITY           SKY/WX    TMP DP  RH WIND       PRES   REMARKS
DULUTH         CLOUDY    27  22  81 S6        30.11R WCI  20
INTRNTL FALLS  LGT SNOW  29  26  89 SE6       30.05S VSB 1   WCI  23
ELY            CLOUDY    27  23  86 S5        30.09S WCI  21
CLOQUET        CLOUDY    28  23  80 SE5       30.12R WCI  23
WHEATON        CLOUDY    30  28  93 SE16      30.00F WCI  19
BRAINERD       CLOUDY    31  26  82 SE9       30.07S WCI  23
HIBBING        CLOUDY    29  22  75 S7        30.09R WCI  22
ALEXANDRIA     CLOUDY    31  28  89 S17       30.03S WCI  19
SAINT CLOUD    CLOUDY    32  27  81 SE9       30.09R WCI  24
MINNEAPOLIS    CLOUDY    31  25  78 SE9       30.14S WCI  23
$$

  *****  WEATHER ACROSS SOUTH DAKOTA  *****

CITY           SKY/WX    TMP DP  RH WIND       PRES   REMARKS
SIOUX FALLS    CLEAR     38  34  85 SE12      29.98F
BROOKINGS      NOT AVBL
WATERTOWN      CLEAR     33  30  88 S15       29.93F WCI  23
HURON          CLEAR     35  32  88 SE13      29.90F
SISSETON         N/A     32  32 100 S16       29.95F WCI  21
ABERDEEN       CLEAR     35  32  88 S12       29.90S
MITCHELL       CLEAR     38  35  89 SE12      29.93F
PIERRE         CLEAR     44  35  70 SE8       29.84S
MOBRIDGE       PTCLDY    41  32  70 SE3       29.82S
RAPID CITY     MOCLDY    46  30  53 CALM      29.84F
$$

  *****  SOME WEATHER IN NEARBY STATES *****

CITY           SKY/WX    TMP DP  RH WIND       PRES   REMARKS
GLASGOW MT     MOCLDY    37  32  82 E7        29.77F
GREAT FALLS MT MOCLDY    53  27  36 SW16      29.84F
CHEYENNE WY    CLEAR     50  19  29 W9        30.07R
SCOTTSBLUFF NE   N/A    N/A N/A N/A MISG      29.96R
OMAHA NE       CLEAR     43  31  62 SE12      30.05R
DES MOINES IA  CLEAR     36  29  75 SE10      30.15S
DAVENPORT IA   CLOUDY    26  20  77 E3        30.24R
CHICAGO IL     PTCLDY    25  16  68 NE6       30.24R WCI  18
EAU CLAIRE WI  CLOUDY    28  20  71 S5        30.19R WCI  23
LA CROSSE WI   CLOUDY    30  22  72 S7        30.21R WCI  23
$$

  *****  SOME NATIONAL WEATHER *****

CITY           SKY/WX    TMP DP  RH WIND       PRES   REMARKS
LA GUARDIA NY  CLOUDY    24  15  68 N13       29.75R WCI  12
RALEIGH NC     PTCLDY    37  11  34 VRB5      29.89R
ATLANTA GA     PTCLDY    41  29  62 N13       30.05R
NEW ORLEANS LA CLEAR     64  40  41 N5        30.11R
OKLAHOMA CITY  MOCLDY    58  35  42 S9        30.06S
ALBUQUERQUE NM PTCLDY    56  28  34 CALM      30.25R
SALT LAKE CITY PTCLDY    47  38  71 NW5       30.13S
LOS ANGELES CA PTCLDY    62  54  74 W12       30.15F
BOISE ID       CLOUDY    38  34  85 NW6       30.12R
SEATTLE WA     CLOUDY    51  48  89 SW3       30.14R
$$

*** WEATHER ACROSS MANITOBA...SASKATCHEWAN AND ONTARIO ***
                ***ONTARIO***

CITY           SKY/WX    TMP DP  RH WIND       PRES   REMARKS
GERALDTON      CLOUDY    23  19  86 SW10      30.09F WCI  12
THUNDER BAY    CLOUDY    28  25  86 S8        30.15S WCI  20
SIOUX LOOKOUT  CLOUDY    23  21  93 S7        30.02F WCI  15
TORONTO        PTCLDY    12   1  62 N14       30.14S WCI  -3
BIG TROUT LK   LGT SNOW  25  25 100 NW5       29.93R WCI  19
PICKLE LAKE    FLURRIES  23  19  86 SW15      29.97F WCI  10
DRYDEN         CLOUDY    23  23 100 S6        30.01F WCI  16
KENORA         LGT SNOW  27  25  93 S9        29.98F WCI  17
$$
                *** MANITOBA***

CITY           SKY/WX    TMP DP  RH WIND       PRES   REMARKS
BRANDON        MOCLDY    28  27  93 NE8       29.84S WCI  20
DAUPHIN        MOCLDY    30  28  93 N9        29.91R WCI  22
ISLAND LAKE    FLURRIES  23  21  93 N8        30.00R WCI  14
PILOT MOUND      N/A     32  30  93 SE12        N/A  WCI  23
THE PAS        PTCLDY    10   7  85 N3        30.05R
THOMPSON       CLEAR      1  -6  71 N8        30.09R WCI -12
WINNIPEG       MOCLDY    30  27  86 S16       29.93F WCI  19
LYNN LAKE      CLEAR     -9 -15  77 NW10      30.10R WCI -28
CHURCHILL      CRYSTALS  -9 -15  77 NW26G37   30.04R WCI -37
GILLAM         CLEAR     -2  -9  71 NW13      30.07R WCI -21
$$
                ***SASKATCHEWAN***

CITY           SKY/WX    TMP DP  RH WIND       PRES   REMARKS
ESTEVAN        CLOUDY    34  32  93 N5        29.78S
KINDERSLEY     MOCLDY    30  28  93 NE6       29.78R WCI  24
LLOYDMINSTER   CLOUDY    28  27  93 E13       29.82S WCI  18
PRINCE ALBERT  FLURRIES  28  25  86 NE9       29.95R WCI  20
REGINA         MOCLDY    28  27  93 S6        29.79F WCI  22
YORKTON        CLEAR     27  27 100 NW3       29.85R
N. BATTLEFORD  CLOUDY    34  30  86 E14       29.85F WCI  24
LA RONGE       MOCLDY     9   1  72 NE9       30.08R WCI  -5
SASKATOON      CLOUDY    28  28 100 NE16      29.86R WCI  17
SWIFT CURRENT  CLOUDY    34  32  93 SE6       29.73F
$$
NOTE: THESE ARE AUTOMATED STATIONS WITH LIMITED QUALITY CONTROL
      "FAIR" INDICATES FEW OR NO CLOUDS BELOW 12,000 FEET WITH NO
      SIGNIFICANT WEATHER AND/OR OBSTRUCTIONS TO VISIBILITY.
      SKY/WX - SKY CONDITION AND SIGNIFICANT WEATHER.
      TMP - AIR TEMPERATURE.    DP   - DEWPOINT TEMPERATURE.
      RH  - RELATIVE HUMIDITY.  PRES - PRESSURE.
      HX  - HEAT INDEX.         WCI  - WIND CHILL INDEX.
$



USA.gov is the U.S. government's official web portal to all federal, state and local government web resources and services.